EW6229 Weather Reports


Display with metric or nautical units.
time (UTC)temp
F
wind
direction
speed
MPH
gust
MPH
rain 1hr
in
rain 24hr
in
rain mn
in
humidity
%
barometer
mb
20181018025912 38 157 0.0 0.0 0.00 0.00 0.00 92 1016.6
20181018023912 38 157 1.0 2.0 0.00 0.00 0.00 92 1016.6
20181018022911 38 157 2.0 2.0 0.00 0.00 0.00 92 1016.6
20181018020912 38 157 0.0 0.0 0.00 0.00 0.00 92 1016.6
20181018015912 38 135 2.0 2.0 0.00 0.00 0.00 92 1016.6
20181018014912 38 157 2.0 2.0 0.00 0.00 0.00 91 1016.6
20181018013912 38 135 1.0 2.0 0.00 0.00 0.00 92 1017.6
20181018011911 39 135 0.0 0.0 0.00 0.00 0.00 91 1017.6
20181018002911 39 135 0.0 0.0 0.00 0.00 0.00 91 1017.6
20181017232911 40 135 2.0 2.0 0.00 0.00 0.00 90 1017.6
20181017225911 40 180 0.0 0.0 0.00 0.00 0.00 90 1017.6
20181017224911 40 157 0.0 0.0 0.00 0.00 0.00 90 1017.6
20181017223911 40 157 1.0 2.0 0.00 0.00 0.00 90 1017.6
20181017222911 40 157 1.0 2.0 0.00 0.00 0.00 89 1017.6
20181017215912 40 157 1.0 2.0 0.00 0.00 0.00 89 1017.6
20181017214911 40 180 1.0 2.0 0.00 0.00 0.00 89 1017.6
20181017213911 40 157 0.0 0.0 0.00 0.00 0.00 89 1017.6
20181017212911 41 157 2.0 2.0 0.00 0.00 0.00 88 1017.6
20181017211911 41 135 0.0 0.0 0.00 0.00 0.00 88 1017.6
20181017210911 41 360 0.0 0.0 0.00 0.00 0.00 88 1017.6
20181017205911 41 180 0.0 0.0 0.00 0.00 0.00 88 1017.6
20181017204911 41 157 2.0 2.0 0.00 0.00 0.00 88 1017.6
20181017201911 41 157 2.0 2.0 0.00 0.00 0.00 86 1017.6
20181017200911 41 157 2.0 2.0 0.00 0.00 0.00 86 1017.6
20181017194911 42 135 2.0 4.0 0.00 0.00 0.00 86 1017.6
20181017193911 42 135 2.0 2.0 0.00 0.00 0.00 86 1017.6
20181017192911 42 157 2.0 2.0 0.00 0.00 0.00 86 1017.6
20181017190911 42 135 2.0 4.0 0.00 0.00 0.00 85 1017.6
20181017185911 43 157 0.0 0.0 0.00 0.00 0.00 85 1017.6
20181017184912 43 157 2.0 2.0 0.00 0.00 0.00 85 1017.6
20181017183911 43 135 0.0 0.0 0.00 0.00 0.00 84 1017.6
20181017182911 43 157 1.0 2.0 0.00 0.00 0.00 83 1017.6
20181017180912 44 135 0.0 0.0 0.00 0.00 0.00 82 1017.6
20181017173911 45 157 1.0 2.0 0.00 0.00 0.00 81 1017.6
20181017171911 46 135 2.0 2.0 0.00 0.00 0.00 81 1016.6
20181017165910 46 135 1.0 2.0 0.00 0.00 0.00 80 1016.6
20181017163910 47 135 1.0 2.0 0.00 0.00 0.00 78 1016.6
20181017162910 48 135 1.0 2.0 0.00 0.00 0.00 77 1016.6
20181017155910 49 135 3.0 6.0 0.00 0.00 0.00 76 1016.6
20181017154910 50 135 6.0 8.0 0.00 0.00 0.00 76 1016.6
20181017153910 50 135 2.0 6.0 0.00 0.00 0.00 75 1016.6
20181017151910 51 180 4.0 6.0 0.00 0.00 0.00 74 1016.6
20181017145910 51 157 4.0 6.0 0.00 0.00 0.00 72 1016.6
20181017144910 52 135 4.0 6.0 0.00 0.00 0.00 72 1016.6
20181017143910 52 157 4.0 8.0 0.00 0.00 0.00 72 1016.6
20181017140910 55 157 2.0 4.0 0.00 0.00 0.00 67 1016.6
20181017135910 55 157 3.0 4.0 0.00 0.00 0.00 66 1016.6
20181017134910 56 135 2.0 4.0 0.00 0.00 0.00 64 1016.6
20181017131910 60 157 3.0 4.0 0.00 0.00 0.00 59 1016.6
20181017125910 62 135 6.0 8.0 0.00 0.00 0.00 58 1016.6
20181017123910 61 157 7.0 10.0 0.00 0.00 0.00 58 1016.6
20181017122910 61 157 8.0 10.0 0.00 0.00 0.00 59 1016.6
20181017120910 59 112 8.0 12.0 0.00 0.00 0.00 59 1016.6
20181017112910 53 67 2.0 2.0 0.00 0.00 0.00 79 1016.6
20181017102912 42 135 0.0 0.0 0.00 0.00 0.00 90 1018.6
20181017101912 42 135 0.0 0.0 0.00 0.00 0.00 90 1018.6
20181017100912 42 135 0.0 0.0 0.00 0.00 0.00 90 1018.6
20181017095912 42 135 0.0 0.0 0.00 0.00 0.00 90 1018.6
20181017094912 42 135 0.0 0.0 0.00 0.00 0.00 90 1018.6
20181017093912 42 135 0.0 0.0 0.00 0.00 0.00 90 1018.6
20181017092912 42 135 0.0 0.0 0.00 0.00 0.00 90 1018.6
20181017085912 41 135 3.0 4.0 0.00 0.00 0.00 91 1018.6
20181017084912 41 135 2.0 4.0 0.00 0.00 0.00 91 1018.6
20181017082912 40 157 2.0 2.0 0.00 0.00 0.00 91 1018.6
20181017074912 39 157 0.0 0.0 0.00 0.00 0.00 92 1018.6
20181017072912 39 157 2.0 2.0 0.00 0.00 0.00 92 1018.6
20181017071911 38 135 3.0 4.0 0.00 0.00 0.00 92 1018.6
20181017064912 37 135 1.0 2.0 0.00 0.00 0.00 91 1018.6
20181017063912 37 157 1.0 2.0 0.00 0.00 0.00 91 1018.6
20181017061911 37 157 0.0 2.0 0.00 0.00 0.00 91 1018.6
20181017055911 37 157 2.0 4.0 0.00 0.00 0.00 91 1018.6
20181017054911 37 157 0.0 0.0 0.00 0.00 0.00 91 1018.6
20181017053911 37 157 0.0 0.0 0.00 0.00 0.00 91 1018.6
20181017052911 37 180 2.0 2.0 0.00 0.00 0.00 91 1018.6
20181017044911 37 157 2.0 2.0 0.00 0.00 0.00 91 1018.6
20181017041911 37 157 2.0 2.0 0.00 0.00 0.00 90 1018.6
20181017035911 37 157 0.0 2.0 0.00 0.00 0.00 90 1018.6
20181017034911 37 157 0.0 0.0 0.00 0.00 0.00 90 1018.6
20181017032911 38 157 2.0 2.0 0.00 0.00 0.00 90 1018.6